UKV6135 NZWN-NZWS

Flight info

Callsign UKV6135
Flight time 1h 6m
Altitude 8000
Route IPKE2P/34 NULKO Q235 BOLOX H463 NS H267 AKSEM
Aircraft C208/L-SDFGR/C

Departure

Time 2026-05-04 11:51
Airport Wellington International Airport (NZWN)

Arrival

Time 2026-05-04 12:57
Airport Westport Airport (NZWS)
Time Latitude Longitude Altitude Speed Heading
2026-05-04 11:05 -41.33192 174.81081 19 ft 0 kts
2026-05-04 11:33 -41.33191 174.81081 19 ft 0 kts
2026-05-04 11:33 -41.33190 174.81081 19 ft 1 kts
2026-05-04 11:34 -41.33202 174.81081 19 ft 2 kts
2026-05-04 11:34 -41.33211 174.81081 20 ft 2 kts
2026-05-04 11:37 -41.33212 174.81080 20 ft 3 kts 329°
2026-05-04 11:38 -41.33218 174.81059 19 ft 0 kts 224°
2026-05-04 11:38 -41.33220 174.81056 19 ft 0 kts 224°
2026-05-04 11:40 -41.33209 174.80976 19 ft 0 kts 295°
2026-05-04 11:45 -41.33208 174.80974 19 ft 2 kts 295°
2026-05-04 11:45 -41.33200 174.80925 19 ft 7 kts 275°
2026-05-04 11:45 -41.33215 174.80863 18 ft 8 kts 224°
2026-05-04 11:45 -41.33238 174.80822 17 ft 0 kts 246°
2026-05-04 11:46 -41.33239 174.80813 17 ft 2 kts 271°
2026-05-04 11:46 -41.33264 174.80785 17 ft 9 kts 195°
2026-05-04 11:46 -41.33340 174.80775 17 ft 13 kts 182°
2026-05-04 11:46 -41.33452 174.80769 15 ft 18 kts 182°
2026-05-04 11:47 -41.33488 174.80765 14 ft 3 kts 207°
2026-05-04 11:47 -41.33517 174.80716 12 ft 5 kts 240°
2026-05-04 11:47 -41.33517 174.80715 12 ft 0 kts 240°
2026-05-04 11:50 -41.33526 174.80683 11 ft 10 kts 261°
2026-05-04 11:50 -41.33458 174.80636 12 ft 15 kts 358°
2026-05-04 11:51 -41.33243 174.80646 15 ft 53 kts
2026-05-04 11:51 -41.32764 174.80664 138 ft 73 kts
2026-05-04 11:51 -41.32234 174.80673 406 ft 71 kts
2026-05-04 11:51 -41.31765 174.80814 660 ft 70 kts 20°
2026-05-04 11:52 -41.31221 174.80991 787 ft 86 kts 358°
2026-05-04 11:52 -41.30646 174.80782 1151 ft 82 kts 346°
2026-05-04 11:52 -41.30065 174.80673 1339 ft 89 kts 356°
2026-05-04 11:52 -41.29419 174.80641 1554 ft 97 kts
2026-05-04 11:53 -41.28732 174.80809 1795 ft 103 kts
2026-05-04 11:53 -41.28255 174.80912 1980 ft 103 kts
2026-05-04 11:53 -41.27333 174.80886 2308 ft 99 kts 342°
2026-05-04 11:53 -41.26932 174.80586 2478 ft 99 kts 323°
2026-05-04 11:55 -41.23921 174.75761 4426 ft 82 kts 312°
2026-05-04 11:55 -41.23549 174.75233 4716 ft 77 kts 308°
2026-05-04 11:56 -41.23193 174.74718 4960 ft 74 kts 310°
2026-05-04 11:56 -41.22833 174.74255 5194 ft 69 kts 308°
2026-05-04 11:56 -41.22489 174.73793 5365 ft 74 kts 308°
2026-05-04 11:56 -41.22098 174.73280 5512 ft 84 kts 311°
2026-05-04 11:57 -41.21632 174.72709 5637 ft 98 kts 311°
2026-05-04 11:57 -41.21104 174.72037 5754 ft 112 kts 311°
2026-05-04 11:57 -41.20516 174.71270 5850 ft 124 kts 311°
2026-05-04 11:57 -41.19889 174.70435 5939 ft 131 kts 311°
2026-05-04 11:58 -41.19217 174.69571 6022 ft 137 kts 312°
2026-05-04 11:58 -41.18525 174.68667 6114 ft 142 kts 313°
2026-05-04 11:58 -41.17820 174.67752 6240 ft 142 kts 313°
2026-05-04 11:58 -41.17117 174.66839 6385 ft 141 kts 312°
2026-05-04 11:59 -41.16410 174.65918 6555 ft 140 kts 312°
2026-05-04 11:59 -41.15719 174.65020 6745 ft 138 kts 313°
2026-05-04 11:59 -41.15044 174.64147 6939 ft 136 kts 311°
2026-05-04 11:59 -41.14376 174.63241 7129 ft 134 kts 306°
2026-05-04 12:00 -41.13934 174.62183 7322 ft 130 kts 283°
2026-05-04 12:00 -41.13827 174.61009 7512 ft 128 kts 268°
2026-05-04 12:00 -41.13867 174.59832 7703 ft 127 kts 264°
2026-05-04 12:00 -41.13922 174.58664 7897 ft 127 kts 264°
2026-05-04 12:01 -41.13975 174.57479 7965 ft 136 kts 265°
2026-05-04 12:01 -41.14023 174.56164 7980 ft 145 kts 266°
2026-05-04 12:02 -41.14281 174.47543 7981 ft 160 kts 266°
2026-05-04 12:03 -41.14325 174.46070 7981 ft 159 kts 266°
2026-05-04 12:03 -41.14370 174.44600 7981 ft 160 kts 266°
2026-05-04 12:03 -41.14413 174.43136 7980 ft 158 kts 266°
2026-05-04 12:03 -41.14457 174.41687 7981 ft 157 kts 267°
2026-05-04 12:04 -41.14498 174.40241 7983 ft 157 kts 266°
2026-05-04 12:04 -41.14539 174.38794 7982 ft 157 kts 266°
2026-05-04 12:04 -41.14582 174.37347 7982 ft 157 kts 266°
2026-05-04 12:04 -41.14622 174.35903 7979 ft 156 kts 266°
2026-05-04 12:05 -41.14665 174.34468 7976 ft 156 kts 266°
2026-05-04 12:05 -41.14707 174.33032 7980 ft 156 kts 266°
2026-05-04 12:05 -41.14745 174.31598 7980 ft 155 kts 266°
2026-05-04 12:05 -41.14787 174.30171 7979 ft 155 kts 266°
2026-05-04 12:06 -41.14828 174.28746 7976 ft 155 kts 266°
2026-05-04 12:06 -41.14869 174.27313 7977 ft 156 kts 267°
2026-05-04 12:06 -41.14909 174.25875 7980 ft 156 kts 267°
2026-05-04 12:06 -41.14947 174.24439 7976 ft 155 kts 266°
2026-05-04 12:07 -41.14986 174.23009 7977 ft 155 kts 266°
2026-05-04 12:07 -41.15027 174.21559 7978 ft 155 kts 266°
2026-05-04 12:07 -41.15066 174.20129 7990 ft 155 kts 266°
2026-05-04 12:07 -41.15106 174.18701 7981 ft 155 kts 266°
2026-05-04 12:08 -41.15144 174.17274 7979 ft 155 kts 266°
2026-05-04 12:08 -41.15182 174.15866 7984 ft 154 kts 266°
2026-05-04 12:08 -41.15222 174.14441 7986 ft 155 kts 267°
2026-05-04 12:08 -41.15262 174.13002 7984 ft 157 kts 267°
2026-05-04 12:09 -41.15300 174.11557 7981 ft 157 kts 267°
2026-05-04 12:09 -41.15337 174.10093 7982 ft 156 kts 266°
2026-05-04 12:09 -41.15375 174.08649 7980 ft 156 kts 266°
2026-05-04 12:09 -41.15389 174.07217 7975 ft 155 kts 271°
2026-05-04 12:10 -41.15265 174.05789 7985 ft 156 kts 276°
2026-05-04 12:10 -41.15111 174.04366 7979 ft 155 kts 276°
2026-05-04 12:10 -41.14957 174.02949 7986 ft 156 kts 276°
2026-05-04 12:10 -41.14804 174.01524 7985 ft 156 kts 276°
2026-05-04 12:11 -41.14649 174.00099 7991 ft 156 kts 277°
2026-05-04 12:11 -41.14486 173.98666 7988 ft 158 kts 277°
2026-05-04 12:11 -41.14324 173.97202 7986 ft 158 kts 277°
2026-05-04 12:11 -41.14161 173.95758 7983 ft 159 kts 277°
2026-05-04 12:12 -41.13996 173.94313 7978 ft 158 kts 277°
2026-05-04 12:12 -41.13830 173.92877 7975 ft 157 kts 277°
2026-05-04 12:12 -41.13667 173.91446 7989 ft 157 kts 276°
2026-05-04 12:12 -41.13544 173.90013 7986 ft 157 kts 269°
2026-05-04 12:13 -41.13711 173.88592 7985 ft 157 kts 255°
2026-05-04 12:14 -41.16187 173.78991 7985 ft 157 kts 251°
2026-05-04 12:15 -41.16535 173.77620 7984 ft 157 kts 251°
2026-05-04 12:15 -41.16882 173.76246 7986 ft 157 kts 251°
2026-05-04 12:15 -41.17227 173.74874 7993 ft 157 kts 251°
2026-05-04 12:15 -41.17574 173.73499 7989 ft 157 kts 251°
2026-05-04 12:16 -41.17918 173.72129 8000 ft 157 kts 251°
2026-05-04 12:16 -41.18263 173.70753 7995 ft 157 kts 251°
2026-05-04 12:16 -41.18606 173.69382 7991 ft 157 kts 252°
2026-05-04 12:16 -41.18951 173.68016 7982 ft 155 kts 251°
2026-05-04 12:17 -41.19291 173.66660 7986 ft 155 kts 251°
2026-05-04 12:17 -41.19630 173.65293 7999 ft 156 kts 252°
2026-05-04 12:17 -41.19973 173.63926 7992 ft 157 kts 251°
2026-05-04 12:17 -41.20323 173.62533 7992 ft 157 kts 251°
2026-05-04 12:18 -41.20664 173.61160 7982 ft 156 kts 252°
2026-05-04 12:18 -41.21005 173.59793 7990 ft 156 kts 251°
2026-05-04 12:18 -41.21347 173.58427 7995 ft 156 kts 252°
2026-05-04 12:18 -41.21688 173.57062 7990 ft 155 kts 252°
2026-05-04 12:19 -41.22028 173.55700 7991 ft 155 kts 252°
2026-05-04 12:19 -41.22367 173.54337 7994 ft 155 kts 252°
2026-05-04 12:19 -41.22706 173.52976 7989 ft 155 kts 252°
2026-05-04 12:19 -41.23046 173.51612 7994 ft 156 kts 252°
2026-05-04 12:20 -41.23388 173.50240 7996 ft 157 kts 252°
2026-05-04 12:20 -41.23731 173.48864 7990 ft 157 kts 252°
2026-05-04 12:20 -41.24073 173.47485 7987 ft 157 kts 252°
2026-05-04 12:20 -41.24416 173.46107 7997 ft 157 kts 252°
2026-05-04 12:21 -41.24760 173.44722 7999 ft 158 kts 252°
2026-05-04 12:21 -41.25104 173.43334 8002 ft 158 kts 252°
2026-05-04 12:21 -41.25449 173.41944 8002 ft 158 kts 252°
2026-05-04 12:21 -41.25793 173.40554 7998 ft 158 kts 252°
2026-05-04 12:22 -41.26138 173.39165 7994 ft 158 kts 252°
2026-05-04 12:22 -41.26366 173.38245 7996 ft 158 kts 252°
2026-05-04 12:22 -41.26815 173.36382 8004 ft 158 kts 252°
2026-05-04 12:22 -41.27043 173.35443 7995 ft 158 kts 252°
2026-05-04 12:23 -41.27386 173.34058 7995 ft 158 kts 254°
2026-05-04 12:23 -41.27687 173.32653 7996 ft 158 kts 255°
2026-05-04 12:23 -41.27996 173.31250 7998 ft 158 kts 254°
2026-05-04 12:23 -41.28324 173.29855 7997 ft 158 kts 253°
2026-05-04 12:24 -41.28674 173.28467 8000 ft 158 kts 251°
2026-05-04 12:24 -41.29028 173.27084 7999 ft 158 kts 252°
2026-05-04 12:24 -41.29376 173.25694 7998 ft 158 kts 252°
2026-05-04 12:24 -41.29719 173.24303 8000 ft 158 kts 252°
2026-05-04 12:25 -41.30060 173.22910 7999 ft 158 kts 252°
2026-05-04 12:25 -41.30401 173.21517 8000 ft 158 kts 252°
2026-05-04 12:25 -41.30755 173.20134 7997 ft 158 kts 251°
2026-05-04 12:25 -41.31133 173.18764 7997 ft 158 kts 250°
2026-05-04 12:26 -41.31518 173.17398 7999 ft 158 kts 250°
2026-05-04 12:26 -41.31903 173.16030 7999 ft 158 kts 250°
2026-05-04 12:26 -41.32288 173.14663 8007 ft 158 kts 250°
2026-05-04 12:26 -41.32670 173.13294 8004 ft 158 kts 250°
2026-05-04 12:27 -41.33050 173.11921 8005 ft 158 kts 250°
2026-05-04 12:27 -41.33429 173.10553 8003 ft 158 kts 250°
2026-05-04 12:27 -41.33809 173.09178 8002 ft 158 kts 250°
2026-05-04 12:27 -41.34188 173.07804 8009 ft 158 kts 251°
2026-05-04 12:28 -41.34566 173.06432 8003 ft 158 kts 251°
2026-05-04 12:28 -41.34944 173.05057 8002 ft 158 kts 251°
2026-05-04 12:28 -41.35321 173.03685 8002 ft 158 kts 251°
2026-05-04 12:28 -41.35697 173.02316 8002 ft 157 kts 251°
2026-05-04 12:29 -41.36072 173.00949 8000 ft 157 kts 251°
2026-05-04 12:29 -41.36448 172.99580 8012 ft 157 kts 250°
2026-05-04 12:29 -41.36823 172.98215 8010 ft 157 kts 251°
2026-05-04 12:29 -41.37202 172.96830 8007 ft 157 kts 251°
2026-05-04 12:30 -41.37576 172.95464 8009 ft 157 kts 251°
2026-05-04 12:30 -41.37950 172.94100 8011 ft 157 kts 251°
2026-05-04 12:30 -41.38323 172.92734 8007 ft 157 kts 251°
2026-05-04 12:30 -41.38697 172.91367 8011 ft 157 kts 251°
2026-05-04 12:31 -41.39071 172.90000 8011 ft 157 kts 251°
2026-05-04 12:31 -41.39445 172.88631 8010 ft 157 kts 251°
2026-05-04 12:31 -41.39820 172.87263 8016 ft 157 kts 251°
2026-05-04 12:31 -41.40194 172.85892 8012 ft 158 kts 251°
2026-05-04 12:32 -41.40568 172.84523 8015 ft 158 kts 251°
2026-05-04 12:32 -41.41316 172.81775 8014 ft 157 kts 251°
2026-05-04 12:32 -41.41689 172.80407 8017 ft 157 kts 251°
2026-05-04 12:33 -41.42062 172.79037 8020 ft 158 kts 251°
2026-05-04 12:33 -41.42436 172.77662 8013 ft 158 kts 251°
2026-05-04 12:33 -41.42810 172.76287 8010 ft 157 kts 251°
2026-05-04 12:33 -41.43182 172.74916 8010 ft 157 kts 251°
2026-05-04 12:34 -41.43561 172.73529 8014 ft 157 kts 251°
2026-05-04 12:34 -41.43934 172.72160 8014 ft 157 kts 251°
2026-05-04 12:34 -41.44302 172.70807 8005 ft 157 kts 251°
2026-05-04 12:34 -41.44672 172.69437 8003 ft 156 kts 251°
2026-05-04 12:35 -41.45041 172.68078 8005 ft 156 kts 251°
2026-05-04 12:35 -41.45412 172.66716 8014 ft 157 kts 251°
2026-05-04 12:35 -41.45782 172.65346 8017 ft 157 kts 251°
2026-05-04 12:35 -41.46152 172.63971 8012 ft 158 kts 251°
2026-05-04 12:36 -41.46515 172.62597 8010 ft 156 kts 251°
2026-05-04 12:36 -41.46886 172.61238 8009 ft 156 kts 250°
2026-05-04 12:36 -41.47262 172.59879 8022 ft 157 kts 250°
2026-05-04 12:36 -41.47639 172.58511 8022 ft 157 kts 250°
2026-05-04 12:37 -41.48015 172.57136 8014 ft 158 kts 251°
2026-05-04 12:37 -41.48388 172.55762 8010 ft 157 kts 251°
2026-05-04 12:37 -41.48758 172.54390 8021 ft 158 kts 251°
2026-05-04 12:37 -41.49127 172.53012 8014 ft 158 kts 251°
2026-05-04 12:38 -41.49497 172.51633 8003 ft 157 kts 251°
2026-05-04 12:38 -41.49865 172.50263 7998 ft 156 kts 251°
2026-05-04 12:38 -41.50229 172.48897 8012 ft 157 kts 251°
2026-05-04 12:38 -41.50598 172.47523 8018 ft 158 kts 251°
2026-05-04 12:39 -41.50969 172.46142 8012 ft 158 kts 251°
2026-05-04 12:39 -41.51341 172.44761 8007 ft 158 kts 251°
2026-05-04 12:39 -41.51710 172.43384 8012 ft 157 kts 251°
2026-05-04 12:39 -41.52080 172.42010 8010 ft 157 kts 251°
2026-05-04 12:40 -41.52456 172.40614 8009 ft 158 kts 251°
2026-05-04 12:40 -41.52823 172.39234 8018 ft 158 kts 251°
2026-05-04 12:40 -41.53191 172.37854 8023 ft 158 kts 251°
2026-05-04 12:40 -41.53559 172.36470 8007 ft 158 kts 251°
2026-05-04 12:41 -41.53927 172.35093 8012 ft 157 kts 251°
2026-05-04 12:41 -41.54296 172.33728 8010 ft 156 kts 251°
2026-05-04 12:41 -41.54663 172.32365 8013 ft 156 kts 251°
2026-05-04 12:41 -41.55023 172.31003 8018 ft 156 kts 251°
2026-05-04 12:42 -41.55387 172.29643 8016 ft 156 kts 251°
2026-05-04 12:42 -41.55752 172.28280 8018 ft 156 kts 251°
2026-05-04 12:42 -41.56116 172.26908 8027 ft 157 kts 251°
2026-05-04 12:42 -41.56482 172.25530 8020 ft 158 kts 251°
2026-05-04 12:43 -41.56848 172.24151 8023 ft 158 kts 251°
2026-05-04 12:43 -41.57217 172.22764 8016 ft 158 kts 251°
2026-05-04 12:43 -41.57508 172.21351 8013 ft 158 kts 263°
2026-05-04 12:43 -41.57526 172.19888 8010 ft 157 kts 269°
2026-05-04 12:44 -41.57576 172.18431 8009 ft 157 kts 267°
2026-05-04 12:44 -41.57645 172.16960 7869 ft 162 kts 267°
2026-05-04 12:44 -41.57710 172.15478 7664 ft 158 kts 267°
2026-05-04 12:44 -41.57769 172.14034 7503 ft 153 kts 267°
2026-05-04 12:45 -41.57825 172.12628 7338 ft 150 kts 267°
2026-05-04 12:45 -41.57878 172.11248 7178 ft 147 kts 267°
2026-05-04 12:45 -41.57929 172.09889 7029 ft 145 kts 267°
2026-05-04 12:45 -41.57979 172.08549 6888 ft 144 kts 267°
2026-05-04 12:46 -41.58033 172.07216 6739 ft 144 kts 267°
2026-05-04 12:46 -41.58081 172.05886 6577 ft 144 kts 267°
2026-05-04 12:46 -41.58126 172.04529 6450 ft 149 kts 268°
2026-05-04 12:46 -41.58167 172.03126 6308 ft 153 kts 268°
2026-05-04 12:47 -41.58212 172.01716 6275 ft 149 kts 268°
2026-05-04 12:47 -41.58262 172.00363 6297 ft 144 kts 268°
2026-05-04 12:47 -41.58311 171.99035 6257 ft 144 kts 268°
2026-05-04 12:47 -41.58358 171.97678 6152 ft 148 kts 268°
2026-05-04 12:48 -41.58404 171.96316 6112 ft 145 kts 268°
2026-05-04 12:48 -41.58452 171.94963 5988 ft 149 kts 268°
2026-05-04 12:48 -41.58497 171.93552 5790 ft 154 kts 268°
2026-05-04 12:48 -41.58542 171.92153 5588 ft 146 kts 268°
2026-05-04 12:49 -41.58589 171.90822 5388 ft 141 kts 268°
2026-05-04 12:49 -41.58634 171.89524 5198 ft 139 kts 268°
2026-05-04 12:49 -41.58750 171.88248 4987 ft 138 kts 255°
2026-05-04 12:49 -41.59234 171.87144 4784 ft 139 kts 233°
2026-05-04 12:50 -41.59803 171.86097 4568 ft 139 kts 238°
2026-05-04 12:50 -41.60324 171.85010 4366 ft 139 kts 239°
2026-05-04 12:50 -41.60843 171.83922 4172 ft 139 kts 239°
2026-05-04 12:50 -41.61369 171.82840 3976 ft 139 kts 238°
2026-05-04 12:51 -41.61899 171.81764 3782 ft 139 kts 238°
2026-05-04 12:51 -41.62434 171.80686 3577 ft 139 kts 238°
2026-05-04 12:51 -41.62973 171.79600 3371 ft 141 kts 237°
2026-05-04 12:51 -41.63518 171.78500 3174 ft 143 kts 237°
2026-05-04 12:52 -41.64067 171.77391 2969 ft 143 kts 237°
2026-05-04 12:52 -41.64617 171.76280 2763 ft 143 kts 237°
2026-05-04 12:52 -41.65166 171.75166 2560 ft 143 kts 237°
2026-05-04 12:52 -41.65714 171.74058 2382 ft 142 kts 237°
2026-05-04 12:53 -41.66251 171.72977 2274 ft 138 kts 236°
2026-05-04 12:53 -41.66772 171.71929 2172 ft 131 kts 237°
2026-05-04 12:53 -41.67257 171.70949 2060 ft 123 kts 236°
2026-05-04 12:53 -41.67729 171.70004 1948 ft 121 kts 236°
2026-05-04 12:54 -41.68192 171.69067 1836 ft 121 kts 236°
2026-05-04 12:54 -41.68651 171.68135 1742 ft 120 kts 236°
2026-05-04 12:54 -41.68964 171.67502 1635 ft 122 kts 235°
2026-05-04 12:54 -41.69436 171.66542 1456 ft 125 kts 235°
2026-05-04 12:55 -41.69917 171.65568 1304 ft 125 kts 236°
2026-05-04 12:55 -41.70397 171.64601 1131 ft 124 kts 234°
2026-05-04 12:55 -41.70876 171.63639 956 ft 124 kts 235°
2026-05-04 12:55 -41.71350 171.62679 795 ft 124 kts 235°
2026-05-04 12:56 -41.71822 171.61721 630 ft 117 kts 233°
2026-05-04 12:56 -41.72232 171.60888 466 ft 97 kts 234°
2026-05-04 12:56 -41.72556 171.60209 366 ft 81 kts 235°
2026-05-04 12:56 -41.72857 171.59599 239 ft 77 kts 231°
2026-05-04 12:57 -41.73146 171.59010 143 ft 73 kts 230°
2026-05-04 12:57 -41.73423 171.58465 53 ft 68 kts 232°
2026-05-04 12:57 -41.73656 171.58003 40 ft 51 kts 237°
2026-05-04 12:57 -41.73799 171.57740 41 ft 21 kts 198°
2026-05-04 12:58 -41.73880 171.57785 40 ft 0 kts 140°
2026-05-04 12:58 -41.73910 171.57814 40 ft 11 kts 145°
2026-05-04 12:58 -41.73938 171.57872 40 ft 1 kts 85°
2026-05-04 12:58 -41.73943 171.57883 40 ft 1 kts 146°
2026-05-04 12:59 -41.73944 171.57883 40 ft 0 kts 153°